Location: Indian Springs
(36.5700°N, 115.6700°W)
Time: 23:44:02
(UTC-07:00)

Amateur Radio Satellites - All Passes

Search period start: 24 July 2014 23:14
Search period end: 25 July 2014 23:14
Location: Indian Springs, 36.5700°N, 115.6700°W

Satellite Date Start Highest point End Downlink Frequencies (MHz)
Time Altitude Azimuth
FUNcube-1 24 Jul 23:23:42 23:26:55 20° 265° (W) 23:30:07 145.950 - 145.970 MHz USB
Lituanica SAT-1 24 Jul 23:30:51 23:32:54 53° 321° (NW) 23:34:58 437.275 MHz beacon
UOSAT-12 24 Jul 23:35:29 23:39:08 22° 49° (NE) 23:42:44 437.025 FM, 437.400 FM
RS-15 25 Jul 00:08:34 00:19:32 69° 246° (WSW) 00:30:56 29.354 - 29.394 USB, Beacon 29.352 USB
PCSat 25 Jul 00:17:31 00:20:36 16° 104° (ESE) 00:23:42 145.825 MHz
ISS 25 Jul 00:38:23 00:41:41 62° 136° (SE) 00:45:00 145.800 FM
UOSAT-12 25 Jul 01:15:00 01:19:27 43° 245° (WSW) 01:23:50 437.025 FM, 437.400 FM
Sapphire 25 Jul 01:24:13 01:29:32 63° 113° (ESE) 01:34:53 437.095 MHz 1200 baud AX-25 AFSK
PCSat 25 Jul 01:58:06 02:03:26 61° 299° (WNW) 02:08:49 145.825 MHz
Oscar 19 25 Jul 01:59:31 02:04:32 50° 100° (E) 02:09:32 437.125 CW, 437.150 USB
ISS 25 Jul 02:16:21 02:18:40 17° 333° (NNW) 02:21:00 145.800 FM
RS-15 25 Jul 02:26:33 02:29:50 12° 263° (W) 02:33:09 29.354 - 29.394 USB, Beacon 29.352 USB
Oscar 16 25 Jul 02:27:01 02:32:11 83° 284° (WNW) 02:37:21 437.025 USB, Beacon 2401.1428
TMSAT-1 25 Jul 02:35:06 02:37:35 13° 91° (E) 02:40:03 436.925 FM
ITAMSAT 1 25 Jul 02:38:46 02:43:51 54° 101° (E) 02:48:53 435.822 SSB
OPAL 25 Jul 02:46:02 02:49:28 19° 64° (ENE) 02:52:55 ?
AO-Echo 25 Jul 02:50:36 02:55:44 76° 102° (ESE) 03:00:40 ?
Gurwin Techsat 1B 25 Jul 02:54:48 02:59:28 31° 97° (E) 03:04:06 435.225 FM
JAS-1B 25 Jul 02:54:54 03:04:04 51° 97° (E) 03:11:55 435.800 - 435.900 CW/SSB
AO-27 25 Jul 02:56:43 03:01:56 84° 103° (ESE) 03:07:07 436.795 MHz FM
Uribyol 2 25 Jul 02:59:18 03:04:29 88° 284° (WNW) 03:09:38 436.500 FM
Sapphire 25 Jul 03:09:42 03:13:23 18° 311° (NW) 03:17:06 437.095 MHz 1200 baud AX-25 AFSK
Oscar 10/S400 25 Jul 03:32:13 04:40:02 60° 214° (SW) 12:33:01 145.825 - 145.975 CW/USB, Beacon 145.810 USB
Oscar 19 25 Jul 03:40:02 03:43:27 18° 295° (WNW) 03:46:51 437.125 CW, 437.150 USB
AO-7 25 Jul 03:56:35 04:02:59 24° 95° (E) 04:09:18 29.400 - 29.500 MHz
TMSAT-1 25 Jul 04:12:39 04:17:54 65° 286° (WNW) 04:23:07 436.925 FM
ITAMSAT 1 25 Jul 04:19:38 04:22:52 17° 296° (WNW) 04:26:05 435.822 SSB
OPAL 25 Jul 04:23:18 04:28:01 44° 259° (WSW) 04:32:44 ?
AO-Echo 25 Jul 04:32:00 04:33:45 12° 299° (WNW) 04:35:28 ?
Gurwin Techsat 1B 25 Jul 04:34:47 04:39:19 29° 292° (WNW) 04:43:50 435.225 FM
AO-27 25 Jul 04:39:17 04:40:42 11° 299° (WNW) 04:42:06 436.795 MHz FM
Uosat F 25 Jul 04:43:44 04:48:40 55° 101° (E) 04:53:33 435.120 FM
JAS-1B 25 Jul 04:45:40 04:54:07 38° 297° (WNW) 05:01:38 435.800 - 435.900 CW/SSB
KITSAT 1 25 Jul 05:11:15 05:15:12 14° 100° (E) 05:19:08 435.175 FM
Lituanica SAT-1 25 Jul 05:45:20 05:47:00 20° 35° (NE) 05:48:39 437.275 MHz beacon
AO-7 25 Jul 05:48:01 05:56:15 67° 291° (WNW) 06:04:25 29.400 - 29.500 MHz
JAS-2 25 Jul 06:00:52 06:05:15 21° 91° (E) 06:09:19 435.800 - 435.900 CW/SSB, 435.910 FM
PANSAT 25 Jul 06:02:38 06:04:25 13° 162° (SSE) 06:06:12 not established
Uosat F 25 Jul 06:24:01 06:26:57 16° 296° (WNW) 06:29:54 435.120 FM
MaSat-1 25 Jul 06:30:19 06:33:29 16° 51° (NE) 06:36:35 437.345 MHz
STRAND 1 25 Jul 06:38:58 06:44:07 81° 75° (ENE) 06:49:17 ?
Hamsat 25 Jul 06:41:54 06:46:12 80° 102° (ESE) 06:50:31 145.90 MHz
SO-67 25 Jul 06:53:53 06:55:10 12° 93° (E) 06:56:27 435.3500 MHz FM
KITSAT 1 25 Jul 07:01:18 07:09:24 86° 116° (ESE) 07:17:32 435.175 FM
ISS 25 Jul 07:09:25 07:12:24 28° 33° (NNE) 07:15:22 145.800 FM
Lituanica SAT-1 25 Jul 07:18:33 07:19:27 12° 229° (SW) 07:20:20 437.275 MHz beacon
Saudisat 1A 25 Jul 07:31:38 07:34:48 20° 110° (ESE) 07:37:59 436.775 MHz
PANSAT 25 Jul 07:40:57 07:44:02 23° 174° (S) 07:47:06 not established
AO-7 25 Jul 07:44:00 07:47:27 13° 311° (NW) 07:50:54 29.400 - 29.500 MHz
JAS-2 25 Jul 07:44:55 07:50:41 45° 290° (WNW) 07:55:51 435.800 - 435.900 CW/SSB, 435.910 FM
MaSat-1 25 Jul 08:06:08 08:11:27 74° 249° (WSW) 08:16:27 437.345 MHz
SO-67 25 Jul 08:25:13 08:28:20 31° 287° (WNW) 08:31:25 435.3500 MHz FM
ISS 25 Jul 08:46:11 08:49:04 27° 229° (SW) 08:51:56 145.800 FM
KITSAT 1 25 Jul 08:59:42 09:05:47 23° 317° (NW) 09:11:55 435.175 FM
HO-68 25 Jul 09:06:54 09:13:21 36° 98° (E) 09:19:45 435.675 MHz FM
Saudisat 1A 25 Jul 09:10:00 09:14:06 37° 306° (NW) 09:18:14 436.775 MHz
PANSAT 25 Jul 09:20:42 09:23:43 22° 187° (S) 09:26:44 not established
Oscar 11 25 Jul 09:29:03 09:31:41 16° 93° (E) 09:34:18 145.825 FM, Beacon 2401.500 USB
UKube-1 25 Jul 10:14:05 10:18:27 74° 285° (WNW) 10:22:46 145.840 MHz, 145.915 MHz
Sapphire 25 Jul 10:14:59 10:19:45 30° 55° (NE) 10:24:29 437.095 MHz 1200 baud AX-25 AFSK
PCSat 25 Jul 10:48:27 10:53:50 63° 61° (ENE) 10:59:11 145.825 MHz
HO-68 25 Jul 10:54:29 11:01:00 40° 294° (WNW) 11:07:30 435.675 MHz FM
PANSAT 25 Jul 11:02:05 11:03:18 11° 199° (SSW) 11:04:31 not established
Oscar 11 25 Jul 11:03:58 11:08:00 38° 287° (WNW) 11:12:01 145.825 FM, Beacon 2401.500 USB
FUNcube-1 25 Jul 11:13:55 11:18:06 87° 283° (WNW) 11:22:18 145.950 - 145.970 MHz USB
Sapphire 25 Jul 11:58:18 12:03:08 34° 251° (WSW) 12:07:57 437.095 MHz 1200 baud AX-25 AFSK
Oscar 16 25 Jul 12:05:55 12:07:59 12° 62° (ENE) 12:10:02 437.025 USB, Beacon 2401.1428
RS-15 25 Jul 12:20:07 12:28:08 23° 102° (ESE) 12:35:57 29.354 - 29.394 USB, Beacon 29.352 USB
PCSat 25 Jul 12:33:39 12:36:39 15° 256° (WSW) 12:39:39 145.825 MHz
AO-27 25 Jul 12:37:17 12:38:50 11° 61° (ENE) 12:40:23 436.795 MHz FM
Uribyol 2 25 Jul 12:39:03 12:41:07 12° 62° (ENE) 12:43:10 436.500 FM
SO-50 25 Jul 13:01:26 13:05:44 51° 116° (ESE) 13:10:07 436.795 FM
Oscar 19 25 Jul 13:14:00 13:18:59 56° 73° (ENE) 13:23:59 437.125 CW, 437.150 USB
JAS-1B 25 Jul 13:35:04 13:42:44 37° 62° (ENE) 13:51:14 435.800 - 435.900 CW/SSB
Oscar 16 25 Jul 13:41:34 13:46:40 73° 258° (WSW) 13:51:48 437.025 USB, Beacon 2401.1428
TMSAT-1 25 Jul 13:53:18 13:56:46 18° 65° (ENE) 14:00:14 436.925 FM
ITAMSAT 1 25 Jul 13:54:16 13:59:25 64° 74° (ENE) 14:04:35 435.822 SSB
AO-Echo 25 Jul 14:00:26 14:05:41 76° 75° (ENE) 14:11:01 ?
AO-27 25 Jul 14:12:22 14:17:36 83° 257° (WSW) 14:22:51 436.795 MHz FM
Gurwin Techsat 1B 25 Jul 14:13:28 14:18:20 38° 70° (ENE) 14:23:14 435.225 FM
Uribyol 2 25 Jul 14:14:42 14:19:54 76° 257° (WSW) 14:25:07 436.500 FM
RS-15 25 Jul 14:27:59 14:39:12 81° 300° (WNW) 14:50:11 29.354 - 29.394 USB, Beacon 29.352 USB
SO-50 25 Jul 14:43:35 14:46:36 17° 313° (NW) 14:49:38 436.795 FM
AO-7 25 Jul 14:53:10 14:59:56 29° 59° (ENE) 15:06:43 29.400 - 29.500 MHz
Oscar 19 25 Jul 14:55:54 14:58:39 15° 268° (W) 15:01:24 437.125 CW, 437.150 USB
KITSAT 1 25 Jul 14:57:53 15:04:43 29° 47° (NE) 15:11:29 435.175 FM
UOSAT-12 25 Jul 15:23:21 15:27:56 80° 300° (WNW) 15:32:38 437.025 FM, 437.400 FM
JAS-1B 25 Jul 15:24:34 15:32:42 54° 262° (W) 15:42:05 435.800 - 435.900 CW/SSB
TMSAT-1 25 Jul 15:31:04 15:36:13 53° 260° (W) 15:41:25 436.925 FM
ITAMSAT 1 25 Jul 15:36:54 15:39:18 13° 268° (W) 15:41:43 435.822 SSB
AO-Echo 25 Jul 15:43:18 15:44:57 11° 270° (W) 15:46:36 ?
Gurwin Techsat 1B 25 Jul 15:54:13 15:58:22 23° 265° (W) 16:02:34 435.225 FM
Uosat F 25 Jul 15:54:29 15:59:26 59° 73° (ENE) 16:04:24 435.120 FM
Saudisat 1A 25 Jul 16:02:14 16:02:48 10° 42° (NE) 16:03:22 436.775 MHz
JAS-2 25 Jul 16:13:12 16:15:04 11° 56° (NE) 16:16:55 435.800 - 435.900 CW/SSB, 435.910 FM
OPAL 25 Jul 16:35:07 16:40:07 58° 103° (ESE) 16:45:09 ?
AO-7 25 Jul 16:43:54 16:52:07 62° 256° (WSW) 17:00:25 29.400 - 29.500 MHz
RS-15 25 Jul 16:45:02 16:53:29 24° 326° (NW) 17:01:56 29.354 - 29.394 USB, Beacon 29.352 USB
KITSAT 1 25 Jul 16:52:41 17:00:39 65° 247° (WSW) 17:08:34 435.175 FM
UOSAT-12 25 Jul 17:07:40 17:08:51 11° 319° (NW) 17:10:03 437.025 FM, 437.400 FM
Hamsat 25 Jul 17:33:02 17:36:55 39° 73° (ENE) 17:40:49 145.90 MHz
Uosat F 25 Jul 17:36:04 17:38:33 14° 268° (W) 17:41:02 435.120 FM
Saudisat 1A 25 Jul 17:38:39 17:43:05 84° 60° (ENE) 17:47:27 436.775 MHz
JAS-2 25 Jul 17:51:02 17:58:45 62° 72° (ENE) 18:06:08 435.800 - 435.900 CW/SSB, 435.910 FM
OPAL 25 Jul 18:15:31 18:18:30 16° 298° (WNW) 18:21:31 ?
STRAND 1 25 Jul 18:52:33 18:57:08 33° 97° (E) 19:01:40 ?
SO-67 25 Jul 18:55:33 18:58:55 50° 76° (ENE) 19:02:18 435.3500 MHz FM
RS-15 25 Jul 19:07:08 19:11:50 13° 3° (N) 19:16:33 29.354 - 29.394 USB, Beacon 29.352 USB
Hamsat 25 Jul 19:10:50 19:13:02 14° 268° (W) 19:15:16 145.90 MHz
HO-68 25 Jul 19:34:13 19:39:22 22° 60° (ENE) 19:44:31 435.675 MHz FM
JAS-2 25 Jul 19:37:44 19:43:59 26° 267° (W) 19:50:06 435.800 - 435.900 CW/SSB, 435.910 FM
STRAND 1 25 Jul 20:31:58 20:36:09 26° 292° (WNW) 20:40:18 ?
UKube-1 25 Jul 21:06:58 21:11:18 70° 75° (ENE) 21:15:40 145.840 MHz, 145.915 MHz
HO-68 25 Jul 21:19:16 21:26:24 68° 257° (WSW) 21:33:33 435.675 MHz FM
RS-15 25 Jul 21:20:40 21:29:46 28° 38° (NE) 21:39:03 29.354 - 29.394 USB, Beacon 29.352 USB
SO-50 25 Jul 21:35:31 21:39:32 26° 51° (NE) 21:43:34 436.795 FM
MaSat-1 25 Jul 21:55:13 21:59:01 84° 112° (ESE) 22:03:32 437.345 MHz
Oscar 11 25 Jul 21:56:08 22:00:24 68° 259° (WSW) 22:04:42 145.825 FM, Beacon 2401.500 USB
FUNcube-1 25 Jul 22:07:49 22:12:06 54° 75° (ENE) 22:16:17 145.950 - 145.970 MHz USB
